This is the latest recevied weather packets stored in our database for station/object KD0SBN-3. If no packets are shown the sender has not sent any weather packets the latest 10 day(s).
| Time | Temp. | Humidity | Pressure | Rain* | Wind** | Luminosity | Snow |
|---|---|---|---|---|---|---|---|
| 1777220780 | 10.56° C | 39% | 1015.8 hPa | 0 mm | - | 673 W/m² | - |
| 1777220475 | 10° C | 39% | 1016 hPa | 0 mm | - | 586 W/m² | - |
| 1777220170 | 10.56° C | 36% | 1016.1 hPa | 0 mm | - | 667 W/m² | - |
| 1777219867 | 10.56° C | 37% | 1015.7 hPa | 0 mm | - | 636 W/m² | - |
| 1777219565 | 10° C | 38% | 1015.6 hPa | 0 mm | - | 672 W/m² | - |
| 1777219261 | 10° C | 39% | 1016.1 hPa | 0 mm | - | 164 W/m² | - |
| 1777218957 | 10.56° C | 38% | 1015.8 hPa | 0 mm | - | 605 W/m² | - |
| 1777218653 | 10.56° C | 38% | 1015.8 hPa | 0 mm | - | 566 W/m² | - |
| 1777218348 | 10.56° C | 40% | 1015.7 hPa | 0 mm | - | 558 W/m² | - |
| 1777218045 | 10.56° C | 39% | 1016 hPa | 0 mm | - | 544 W/m² | - |
| 1777217740 | 10.56° C | 40% | 1016.1 hPa | 0 mm | - | 529 W/m² | - |
| 1777217437 | 10° C | 41% | 1016.5 hPa | 0 mm | - | 523 W/m² | - |
| 1777217133 | 10° C | 42% | 1016.2 hPa | 0 mm | - | 509 W/m² | - |
| 1777216829 | 8.89° C | 42% | 1016 hPa | 0 mm | - | 483 W/m² | - |
| 1777216527 | 9.44° C | 42% | 1016 hPa | 0 mm | - | 477 W/m² | - |
| 1777216222 | 9.44° C | 42% | 1016.4 hPa | 0 mm | - | 459 W/m² | - |
| 1777215920 | 9.44° C | 43% | 1016.2 hPa | 0 mm | - | 442 W/m² | - |
| 1777215617 | 8.89° C | 45% | 1016.2 hPa | 0 mm | - | 427 W/m² | - |
| 1777215312 | 8.89° C | 46% | 1016.4 hPa | 0 mm | - | 411 W/m² | - |
| 1777215009 | 8.89° C | 46% | 1016.5 hPa | 0 mm | - | 396 W/m² | - |
| 1777214703 | 8.89° C | 47% | 1016.5 hPa | 0 mm | - | 380 W/m² | - |
| 1777214403 | 8.33° C | 47% | 1016.4 hPa | 0 mm | - | 366 W/m² | - |
| 1777214102 | 8.33° C | 49% | 1016.4 hPa | 0 mm | - | 359 W/m² | - |
| 1777213797 | 8.33° C | 47% | 1016.2 hPa | 0 mm | - | 338 W/m² | - |
| 1777213493 | 8.33° C | 47% | 1016.6 hPa | 0 mm | - | 326 W/m² | - |
* Rain latest hour (hover to see other rain measurements)
** Current wind speed in m/s (hover to see current wind gust speed)